User: anonymous   Login
Location: Cheyres
(46.8153°N, 6.7877°E)
Time: 22:15:25
(UTC+00:00)
Language:

FENGYUN 1C DEB - Orbit

View from above orbital plane
View from above orbital plane
View from above satellite
View from above satellite

Ground track
Ground track

The orbit data is extracted from the following two-line orbital elements,

1 30357U 99025ABU 21335.57661094  .00000062  00000-0  65449-4 0  9995
2 30357  98.9850  11.4624 0050775 121.8574   7.3316 14.04310261761386
Epoch (UTC): 01 December 2021 13:50:19
Eccentricity: 0.0050775
inclination: 98.9850°
perigee height: 842 km
apogee height: 916 km
right ascension of ascending node: 11.4624°
argument of perigee: 121.8574°
revolutions per day: 14.04310261
mean anomaly at epoch: 7.3316°
orbit number at epoch: 76138

The dashed part of the orbit path shows where the satellite is in the earth's shadow,  

DLR